TimeCST,TemperatureF,Dew PointF,Humidity,Sea Level PressureIn,VisibilityMPH,Wind Direction,Wind SpeedMPH,Gust SpeedMPH,PrecipitationIn,Events,Conditions,WindDirDegrees,DateUTC
12:15 AM,32.2,30.2,92,30.07,10.0,WNW,17.3,-,N/A,,Overcast,290,2013-12-15 06:15:00
12:35 AM,32.0,29.3,90,30.08,10.0,NW,13.8,20.7,N/A,,Overcast,310,2013-12-15 06:35:00
12:55 AM,32.0,28.8,88,30.08,10.0,WNW,15.0,20.7,N/A,,Overcast,300,2013-12-15 06:55:00
1:15 AM,31.5,28.6,89,30.09,10.0,WNW,15.0,-,N/A,,Overcast,300,2013-12-15 07:15:00
1:35 AM,31.1,27.9,88,30.10,10.0,WNW,16.1,21.9,N/A,,Overcast,300,2013-12-15 07:35:00
1:55 AM,30.9,27.9,88,30.11,10.0,NW,12.7,-,N/A,,Overcast,320,2013-12-15 07:55:00
2:15 AM,30.6,27.7,89,30.11,10.0,NW,11.5,-,N/A,,Overcast,310,2013-12-15 08:15:00
2:35 AM,30.6,27.7,89,30.12,10.0,WNW,11.5,-,N/A,,Overcast,300,2013-12-15 08:35:00
2:55 AM,30.7,27.5,88,30.12,10.0,WNW,9.2,-,N/A,,Overcast,300,2013-12-15 08:55:00
3:15 AM,30.6,27.0,86,30.12,10.0,WNW,11.5,19.6,N/A,,Overcast,300,2013-12-15 09:15:00
3:35 AM,30.2,26.8,87,30.12,10.0,WNW,13.8,17.3,N/A,,Overcast,300,2013-12-15 09:35:00
3:55 AM,30.2,27.3,89,30.12,10.0,WNW,11.5,-,N/A,,Overcast,290,2013-12-15 09:55:00
4:15 AM,30.0,26.8,88,30.12,10.0,WNW,17.3,-,N/A,,Overcast,290,2013-12-15 10:15:00
4:35 AM,30.0,26.6,87,30.13,10.0,WNW,12.7,-,N/A,,Overcast,300,2013-12-15 10:35:00
4:55 AM,30.0,26.6,87,30.13,10.0,WNW,10.4,-,N/A,,Overcast,290,2013-12-15 10:55:00
5:15 AM,30.0,26.6,87,30.14,10.0,WNW,12.7,-,N/A,,Overcast,290,2013-12-15 11:15:00
5:35 AM,29.8,26.2,86,30.14,10.0,WNW,10.4,-,N/A,,Overcast,300,2013-12-15 11:35:00
5:55 AM,29.8,26.4,87,30.15,10.0,WNW,10.4,16.1,N/A,,Overcast,290,2013-12-15 11:55:00
6:15 AM,29.8,26.6,88,30.16,10.0,WNW,12.7,-,N/A,,Overcast,300,2013-12-15 12:15:00
6:35 AM,29.7,26.6,88,30.16,10.0,WNW,12.7,-,N/A,,Overcast,290,2013-12-15 12:35:00
6:55 AM,29.5,26.4,88,30.17,10.0,West,12.7,-,N/A,,Overcast,270,2013-12-15 12:55:00
7:15 AM,29.3,26.4,89,30.17,10.0,West,16.1,-,N/A,,Overcast,270,2013-12-15 13:15:00
7:35 AM,28.9,25.7,88,30.18,7.0,West,13.8,-,N/A,,Overcast,270,2013-12-15 13:35:00
7:55 AM,28.9,25.7,88,30.19,10.0,West,12.7,-,N/A,,Overcast,280,2013-12-15 13:55:00
8:15 AM,28.9,25.9,88,30.19,7.0,West,12.7,-,N/A,,Overcast,280,2013-12-15 14:15:00
8:35 AM,28.9,25.3,86,30.20,7.0,West,10.4,16.1,N/A,,Overcast,280,2013-12-15 14:35:00
8:55 AM,29.1,25.5,86,30.20,7.0,West,9.2,-,N/A,,Overcast,280,2013-12-15 14:55:00
9:15 AM,29.3,25.7,86,30.21,7.0,West,9.2,-,N/A,,Overcast,270,2013-12-15 15:15:00
9:35 AM,29.3,26.2,88,30.22,7.0,WSW,9.2,-,N/A,,Overcast,250,2013-12-15 15:35:00
9:55 AM,29.5,25.5,85,30.22,10.0,West,10.4,-,N/A,,Overcast,260,2013-12-15 15:55:00
10:20 AM,29.3,24.6,83,30.21,10.0,West,13.8,20.7,N/A,,Overcast,280,2013-12-15 16:20:00
10:35 AM,29.3,25.0,84,30.21,10.0,West,13.8,-,N/A,,Overcast,270,2013-12-15 16:35:00
10:55 AM,30.0,25.3,83,30.20,7.0,WSW,10.4,-,N/A,,Overcast,250,2013-12-15 16:55:00
11:15 AM,30.2,25.9,84,30.18,7.0,WSW,9.2,-,N/A,,Overcast,250,2013-12-15 17:15:00
11:35 AM,30.7,26.2,83,30.18,10.0,WSW,11.5,-,N/A,,Overcast,250,2013-12-15 17:35:00
11:55 AM,31.1,26.8,84,30.17,10.0,WSW,8.1,-,N/A,,Overcast,240,2013-12-15 17:55:00
12:20 PM,31.1,26.2,82,30.17,10.0,WSW,11.5,17.3,N/A,,Overcast,250,2013-12-15 18:20:00
12:35 PM,31.5,25.3,78,30.16,10.0,WSW,13.8,-,N/A,,Overcast,250,2013-12-15 18:35:00
12:55 PM,31.5,25.5,79,30.16,10.0,WSW,11.5,-,N/A,,Overcast,250,2013-12-15 18:55:00
1:15 PM,31.8,25.7,78,30.16,10.0,West,13.8,-,N/A,,Overcast,270,2013-12-15 19:15:00
1:35 PM,31.6,26.2,80,30.17,10.0,West,11.5,-,N/A,,Overcast,270,2013-12-15 19:35:00
1:55 PM,31.8,26.6,81,30.17,10.0,WSW,8.1,-,N/A,,Overcast,240,2013-12-15 19:55:00
2:15 PM,31.8,26.6,81,30.15,10.0,SW,10.4,-,N/A,,Overcast,220,2013-12-15 20:15:00
2:35 PM,32.0,27.1,82,30.15,10.0,SW,8.1,-,N/A,,Overcast,220,2013-12-15 20:35:00
2:55 PM,32.0,27.1,82,30.15,10.0,SW,9.2,-,N/A,,Overcast,220,2013-12-15 20:55:00
3:15 PM,32.0,27.3,83,30.14,10.0,SSW,10.4,-,N/A,,Overcast,210,2013-12-15 21:15:00
3:35 PM,32.0,27.5,83,30.15,10.0,SSW,10.4,-,N/A,,Overcast,210,2013-12-15 21:35:00
3:55 PM,32.0,27.3,83,30.14,10.0,SSW,9.2,-,N/A,,Overcast,210,2013-12-15 21:55:00
4:15 PM,32.0,27.3,83,30.14,10.0,SSW,9.2,-,N/A,,Mostly Cloudy,200,2013-12-15 22:15:00
4:35 PM,31.6,27.5,85,30.14,10.0,South,5.8,-,N/A,,Mostly Cloudy,190,2013-12-15 22:35:00
4:55 PM,31.3,27.5,86,30.13,10.0,South,10.4,-,N/A,,Scattered Clouds,190,2013-12-15 22:55:00
5:15 PM,31.1,27.3,86,30.14,10.0,SSW,6.9,-,N/A,,Scattered Clouds,200,2013-12-15 23:15:00
5:35 PM,29.8,26.6,88,30.15,10.0,Calm,Calm,-,N/A,,Scattered Clouds,0,2013-12-15 23:35:00
5:55 PM,28.8,27.1,94,30.15,10.0,South,3.5,-,N/A,,Mostly Cloudy,190,2013-12-15 23:55:00
6:15 PM,30.2,28.2,92,30.15,10.0,South,4.6,-,N/A,,Overcast,190,2013-12-16 00:15:00
6:35 PM,30.9,28.8,92,30.15,10.0,South,6.9,-,N/A,,Overcast,180,2013-12-16 00:35:00
6:55 PM,31.5,28.8,90,30.15,10.0,SSW,8.1,-,N/A,,Overcast,200,2013-12-16 00:55:00
7:15 PM,31.8,28.9,89,30.16,10.0,SSW,5.8,-,N/A,,Overcast,210,2013-12-16 01:15:00
7:35 PM,32.0,29.3,90,30.15,7.0,South,6.9,-,N/A,,Overcast,190,2013-12-16 01:35:00
7:55 PM,32.0,29.7,91,30.15,7.0,South,8.1,-,N/A,,Overcast,190,2013-12-16 01:55:00
8:15 PM,32.0,30.0,92,30.16,7.0,South,6.9,-,N/A,,Overcast,190,2013-12-16 02:15:00
8:35 PM,32.0,30.2,93,30.15,7.0,South,8.1,-,N/A,,Overcast,180,2013-12-16 02:35:00
8:55 PM,32.0,30.6,94,30.15,7.0,South,9.2,-,N/A,,Overcast,180,2013-12-16 02:55:00
9:15 PM,32.0,30.9,96,30.15,7.0,South,9.2,-,N/A,,Overcast,180,2013-12-16 03:15:00
9:35 PM,32.0,31.1,96,30.15,7.0,South,8.1,-,N/A,,Overcast,180,2013-12-16 03:35:00
9:55 PM,32.0,31.1,96,30.14,7.0,South,8.1,-,N/A,,Overcast,170,2013-12-16 03:55:00
10:15 PM,32.2,31.3,96,30.13,7.0,South,8.1,-,N/A,,Overcast,170,2013-12-16 04:15:00
10:35 PM,32.4,31.5,96,30.14,7.0,South,8.1,-,N/A,,Overcast,170,2013-12-16 04:35:00
10:55 PM,32.7,31.8,96,30.13,7.0,South,6.9,-,N/A,,Overcast,170,2013-12-16 04:55:00
11:15 PM,32.9,32.0,96,30.12,7.0,South,8.1,-,N/A,,Overcast,170,2013-12-16 05:15:00
11:35 PM,32.9,32.0,96,30.12,7.0,South,9.2,-,N/A,,Overcast,170,2013-12-16 05:35:00
11:55 PM,32.9,32.0,96,30.11,7.0,South,9.2,-,N/A,,Overcast,190,2013-12-16 05:55:00